CZ-3C DEB, 40200

Orbit data source: Space-Track

CZ-3C DEB, 40200 is space debris in HEO originally from a launch on Fri, 24 Feb 2012 UTC launched from the Xichang Space Center, China (XSC). Debris objects in space refer to the collection of defunct objects orbiting the Earth. Examples of debris include non-operational satellites, rocket bodies, and fragments generated from explosions, collisions, or faulty payload assembly.

Loading next visibility...
Identifier
40200, 2012-008K
Orbit
HEO
Country
Flag of CNCN / PRC
Related business
Manufacturer
CALT
Mission
Spacecraft
Bus & Motor
Unknown
Mass
Unknown
Launch date (UTC)
2012-02-24 (14 years ago)
Launch vehicle
Unknown
Launch site
Xichang Space Center, China (XSC)
Object type
Payload
Rocket body
Debris
Shape & HBR
Unknown shape, 0.1 m
Radar Cross Section
Medium (>0.1 m² and <1 m²)

Expand to show TLE details & history
Last TLE update: 2 days ago

TLE from 2 days ago
0 CZ-3C DEB
1 40200U 12008K   26033.75093148 -.00000180  00000-0  00000-0 0  9998
2 40200  20.9650 296.2263 6984273  58.8236 351.0959  2.19222432 95778
Epoch: 2026-02-02T18:01Z
TLE epoch observation values (Epoch: 2026-02-02T18:01:20.479Z)
Latitude
-0.00006°
Longitude
-106.94905°
Altitude
3,019.351 km
Speed
8.301 km/s
True Right ascension
19h 45m 18s
True Declination
0° 00' 00"
Sunlit
Object was in daylight at epoch
Visualization orbit readout
Latitude
Unknown
Longitude
Unknown
Altitude
Unknown
Speed
Unknown
Apparent Right ascension
Unknown
Apparent Declination
Unknown
Sunlit
N/A
Visualization observer readout
Local Sidereal Time
09:02:47
Azimuth
Unknown
Elevation
Unknown
Doppler factor
Unknown
Orbital elements
Apogee altitude
36,141.841 km
Perigee altitude
1,171.709 km
Semi-major axis
25,034.912 km
Eccentricity
0.69843
Inclination
20.965°
RAAN
296.2263°
Arg. of periapsis
58.8236°
True anomaly
300.29844°
Mean anomaly
351.0959°
Eccentric anomaly
332.8112°
Mean motion
0.54793 °/min
Orbital period
657.02 mins
BSTAR
0
Loading maneuver chart data...
Computing Atmospheric mass density...
Loading historical data...
Loading historical data...
Loading historical data...
Loading historical data...
Loading historical data...
Loading historical data...
Loading historical data...

Documentation

Showing up to 5 results
|